Location: Alumbaugh
(37.5976°N, 83.9299°W)
Time: 12:42:41
(UTC+00:00)

YUBILEINY - Visible Passes

Search period start: 27 March 2023 00:00
Search period end: 06 April 2023 00:00
Orbit: 1477 x 1509 km, 82.5° (Epoch: 27 March)

Date Brightness Start Highest point End Pass type
(mag) Time Alt. Az. Time Alt. Az. Time Alt. Az.
27 Mar ? 03:21:04 10° NNE 03:23:54 15° NE 03:23:54 15° NE visible
27 Mar ? 05:15:27 10° N 05:19:49 34° N 05:19:49 34° N visible
27 Mar ? 07:14:47 10° NW 07:15:43 12° NW 07:15:43 12° NW visible
28 Mar ? 04:26:05 10° N 04:30:43 32° NNE 04:30:43 32° NNE visible
28 Mar ? 06:23:24 10° NNW 06:26:37 22° NW 06:26:37 22° NW visible
29 Mar ? 03:37:20 10° NNE 03:41:38 23° NE 03:41:38 23° NE visible
29 Mar ? 05:33:09 10° NNW 05:37:32 33° NNW 05:37:32 33° NNW visible
30 Mar ? 02:50:05 10° NE 02:52:33 13° NE 02:52:33 13° NE visible
30 Mar ? 04:43:27 10° N 04:48:27 39° N 04:48:27 39° N visible
30 Mar ? 06:42:02 10° NW 06:44:22 16° NW 06:44:22 16° NW visible
31 Mar ? 03:54:14 10° N 03:59:23 32° NE 03:59:23 32° NE visible
31 Mar ? 05:51:07 10° NNW 05:55:18 28° NW 05:55:18 28° NW visible
01 Apr ? 03:05:45 10° NNE 03:10:19 20° NE 03:10:19 20° NE visible
01 Apr ? 05:01:03 10° N 05:06:14 41° NNW 05:06:14 41° NNW visible
01 Apr ? 07:02:05 10° NW 07:02:09 10° NW 07:02:09 10° NW visible
02 Apr ? 02:20:29 10° NE 02:21:16 10° ENE 02:21:16 10° ENE visible
02 Apr ? 04:11:29 10° N 04:17:11 43° NNE 04:17:11 43° NNE visible
02 Apr ? 06:09:29 10° NNW 06:13:06 21° NW 06:13:06 21° NW visible
03 Apr ? 03:22:27 10° N 03:28:09 31° NE 03:28:09 31° NE visible
03 Apr ? 05:18:53 10° NNW 05:24:04 36° NW 05:24:04 36° NW visible
04 Apr ? 02:34:19 10° NNE 02:39:07 18° ENE 02:39:07 18° ENE visible
04 Apr ? 04:28:59 10° N 04:35:02 50° N 04:35:02 50° N visible
04 Apr ? 06:28:40 10° NW 06:30:57 14° WNW 06:30:57 14° WNW visible
05 Apr ? 03:39:34 10° N 03:46:01 44° NE 03:46:01 44° NE visible
05 Apr ? 05:37:04 10° NNW 05:41:56 27° NW 05:41:56 27° NW visible
